Location: Cucq
(50.4773°N, 1.6202°E)
Time: 08:53:33
(UTC+00:00)

ADEOS II - Pass Details

Date: 07 August 2020
Orbit: 799 x 802 km, 98.5° (Epoch: 20 September)

Event Time Altitude Azimuth Distance (km) Brightness Sun altitude
Rises 02:17:02 0° 16° (NNE) 3,324 6.7 -16.7°
Reaches altitude 10° 02:19:23 10° 18° (NNE) 2,389 5.7 -16.5°
Maximum altitude 02:24:40 74° 104° (ESE) 837 2.2 -16.0°
Enters shadow 02:28:23 20° 187° (S) 1,785 3.4 -15.6°
